Location: Newark
(25.6108°S, 54.5803°W)
Time: 05:16:32
(UTC+00:00)

deb Explorer IX - Pass Details

Date: 02 November 2020
Orbit: 538 x 1104 km, 38.8° (Epoch: 29 November)

Event Time Altitude Azimuth Distance (km) Brightness Sun altitude
Rises 17:29:05 0° 302° (WNW) 3,840 ? 58.5°
Reaches altitude 10° 17:31:56 10° 302° (WNW) 2,837 ? 57.8°
Maximum altitude 17:38:52 87° 213° (SSW) 954 ? 56.3°
Drops below altitude 10° 17:44:52 10° 122° (ESE) 2,478 ? 55.0°
Sets 17:47:13 0° 122° (ESE) 3,328 ? 54.5°
